| time (UTC) | temp C | wind direction | speed KPH | gust KPH | rain 1hr cm | rain 24hr cm | rain mn cm | humidity % | barometer mb |
| 20260506182929 | 16 | 258 | 4.8 | 4.8 | 0.00 | 0.61 | 0.61 | 99 | 989.9 |
| 20260506182426 | 16 | 242 | 4.8 | 8.0 | 0.00 | 0.61 | 0.61 | 99 | 990.2 |
| 20260506181924 | 16 | 203 | 8.0 | 9.7 | 0.00 | 0.61 | 0.61 | 99 | 989.9 |
| 20260506181422 | 16 | 224 | 8.0 | 11.3 | 0.00 | 0.61 | 0.61 | 99 | 990.0 |
| 20260506180918 | 16 | 193 | 0.0 | 1.6 | 0.00 | 0.61 | 0.61 | 99 | 990.1 |
| 20260506180414 | 16 | 266 | 8.0 | 9.7 | 0.00 | 0.61 | 0.61 | 98 | 990.0 |
| 20260506175911 | 16 | 192 | 4.8 | 4.8 | 0.00 | 0.61 | 0.61 | 98 | 990.0 |
| 20260506175408 | 16 | 238 | 6.4 | 9.7 | 0.00 | 0.61 | 0.61 | 97 | 989.8 |
| 20260506174905 | 16 | 243 | 8.0 | 8.0 | 0.00 | 0.61 | 0.61 | 96 | 990.0 |
| 20260506174403 | 16 | 223 | 4.8 | 4.8 | 0.00 | 0.61 | 0.61 | 97 | 989.9 |
| 20260506173900 | 16 | 255 | 6.4 | 8.0 | 0.00 | 0.61 | 0.61 | 98 | 989.8 |
| 20260506173356 | 15 | 215 | 4.8 | 9.7 | 0.00 | 0.61 | 0.61 | 98 | 990.0 |
| 20260506172853 | 15 | 262 | 9.7 | 14.5 | 0.00 | 0.61 | 0.61 | 99 | 990.0 |
| 20260506172350 | 15 | 261 | 6.4 | 8.0 | 0.00 | 0.61 | 0.61 | 99 | 989.7 |
| 20260506171847 | 16 | 224 | 6.4 | 8.0 | 0.00 | 0.61 | 0.61 | 99 | 989.9 |
| 20260506171344 | 15 | 253 | 4.8 | 4.8 | 0.00 | 0.61 | 0.61 | 99 | 989.9 |
| 20260506170842 | 15 | 239 | 4.8 | 8.0 | 0.00 | 0.61 | 0.61 | 99 | 990.3 |
| 20260506170338 | 15 | 217 | 8.0 | 11.3 | 0.00 | 0.61 | 0.61 | 99 | 990.3 |
| 20260506165837 | 15 | 255 | 6.4 | 9.7 | 0.00 | 0.61 | 0.61 | 99 | 990.1 |
| 20260506165335 | 15 | 295 | 12.9 | 14.5 | 0.00 | 0.61 | 0.61 | 99 | 990.0 |
| 20260506164831 | 16 | 267 | 1.6 | 3.2 | 0.00 | 0.61 | 0.61 | 99 | 990.1 |
| 20260506164328 | 16 | 223 | 4.8 | 8.0 | 0.00 | 0.61 | 0.61 | 99 | 990.2 |
| 20260506163825 | 16 | 257 | 8.0 | 9.7 | 0.00 | 0.61 | 0.61 | 99 | 990.0 |
| 20260506163320 | 16 | 241 | 11.3 | 11.3 | 0.00 | 0.61 | 0.61 | 99 | 989.6 |
| 20260506162815 | 16 | 85 | 3.2 | 4.8 | 0.18 | 0.61 | 0.61 | 99 | 989.7 |
| 20260506162314 | 16 | 129 | 4.8 | 4.8 | 0.18 | 0.61 | 0.61 | 99 | 989.9 |
| 20260506161811 | 16 | 167 | 3.2 | 3.2 | 0.00 | 0.58 | 0.58 | 99 | 989.9 |
| 20260506161308 | 15 | 149 | 3.2 | 3.2 | 0.13 | 0.58 | 0.58 | 99 | 989.8 |
| 20260506160806 | 15 | 265 | 8.0 | 9.7 | 0.13 | 0.58 | 0.58 | 99 | 990.1 |
| 20260506160302 | 15 | 174 | 8.0 | 9.7 | 0.18 | 0.56 | 0.56 | 99 | 990.5 |
| 20260506155801 | 15 | 152 | 4.8 | 8.0 | 0.18 | 0.56 | 0.56 | 99 | 990.8 |
| 20260506155257 | 15 | 178 | 3.2 | 4.8 | 0.13 | 0.53 | 0.53 | 99 | 991.1 |
| 20260506153410 | 15 | 211 | 4.8 | 8.0 | 0.30 | 0.46 | 0.46 | 99 | 991.3 |
| 20260506152907 | 15 | 189 | 3.2 | 3.2 | 0.30 | 0.43 | 0.43 | 99 | 991.3 |
| 20260506152404 | 15 | 213 | 3.2 | 3.2 | 0.48 | 0.41 | 0.41 | 99 | 991.4 |
| 20260506151903 | 15 | 218 | 3.2 | 3.2 | 0.36 | 0.36 | 0.36 | 99 | 991.5 |
| 20260506151359 | 15 | 255 | 3.2 | 3.2 | 0.30 | 0.33 | 0.33 | 99 | 991.3 |
| 20260506150857 | 15 | 234 | 4.8 | 8.0 | 0.43 | 0.30 | 0.30 | 99 | 991.2 |
| 20260506150353 | 15 | 149 | 8.0 | 12.9 | 0.48 | 0.28 | 0.28 | 99 | 991.2 |
| 20260506145849 | 15 | 253 | 3.2 | 4.8 | 0.18 | 0.23 | 0.23 | 99 | 991.3 |
| 20260506145345 | 16 | 252 | 3.2 | 4.8 | 0.30 | 0.23 | 0.23 | 99 | 991.1 |
| 20260506144844 | 16 | 213 | 4.8 | 4.8 | 0.13 | 0.20 | 0.20 | 98 | 991.1 |
| 20260506144340 | 16 | 230 | 0.0 | 0.0 | 0.18 | 0.18 | 0.18 | 98 | 991.1 |
| 20260506143838 | 16 | 197 | 0.0 | 3.2 | 0.30 | 0.18 | 0.18 | 97 | 991.1 |
| 20260506143335 | 16 | 251 | 4.8 | 4.8 | 0.30 | 0.15 | 0.15 | 97 | 991.1 |
| 20260506142833 | 16 | 230 | 4.8 | 4.8 | 0.30 | 0.13 | 0.13 | 96 | 991.2 |
| 20260506142331 | 16 | 237 | 4.8 | 4.8 | 0.30 | 0.10 | 0.10 | 96 | 991.2 |
| 20260506141829 | 16 | 215 | 3.2 | 4.8 | 0.30 | 0.08 | 0.08 | 95 | 991.5 |
| 20260506141327 | 16 | 306 | 3.2 | 4.8 | 0.30 | 0.05 | 0.05 | 93 | 991.5 |
| 20260506140825 | 17 | 220 | 1.6 | 1.6 | 0.18 | 0.03 | 0.03 | 92 | 991.4 |
| 20260506140321 | 17 | 176 | 3.2 | 3.2 | 0.00 | 0.00 | 0.00 | 89 | 991.4 |
| 20260506135818 | 17 | 231 | 8.0 | 9.7 | 0.00 | 0.00 | 0.00 | 89 | 991.2 |
| 20260506135314 | 17 | 221 | 4.8 | 4.8 | 0.00 | 0.00 | 0.00 | 88 | 991.1 |
| 20260506134811 | 17 | 245 | 8.0 | 11.3 | 0.00 | 0.00 | 0.00 | 87 | 991.1 |
| 20260506134308 | 17 | 224 | 4.8 | 4.8 | 0.00 | 0.00 | 0.00 | 86 | 991.1 |
| 20260506133805 | 18 | 228 | 6.4 | 8.0 | 0.00 | 0.00 | 0.00 | 87 | 991.1 |
| 20260506133301 | 18 | 265 | 4.8 | 4.8 | 0.00 | 0.00 | 0.00 | 85 | 991.2 |
| 20260506132758 | 17 | 246 | 6.4 | 8.0 | 0.00 | 0.00 | 0.00 | 86 | 991.2 |
| 20260506132255 | 17 | 272 | 4.8 | 4.8 | 0.00 | 0.00 | 0.00 | 85 | 991.3 |
| 20260506131754 | 17 | 260 | 4.8 | 4.8 | 0.00 | 0.00 | 0.00 | 86 | 991.5 |
| 20260506131249 | 17 | 265 | 3.2 | 3.2 | 0.00 | 0.00 | 0.00 | 85 | 991.2 |
| 20260506130746 | 17 | 259 | 8.0 | 11.3 | 0.00 | 0.00 | 0.00 | 85 | 991.1 |
| 20260506130243 | 17 | 227 | 3.2 | 4.8 | 0.00 | 0.00 | 0.00 | 84 | 991.3 |
| 20260506125741 | 18 | 264 | 6.4 | 9.7 | 0.00 | 0.00 | 0.00 | 83 | 991.4 |
| 20260506125239 | 18 | 254 | 4.8 | 4.8 | 0.00 | 0.00 | 0.00 | 83 | 991.5 |
| 20260506124737 | 18 | 276 | 4.8 | 4.8 | 0.00 | 0.00 | 0.00 | 81 | 991.7 |
| 20260506124234 | 18 | 238 | 8.0 | 9.7 | 0.00 | 0.00 | 0.00 | 81 | 991.5 |
| 20260506123731 | 18 | 131 | 11.3 | 14.5 | 0.00 | 0.00 | 0.00 | 81 | 991.4 |
| 20260506123230 | 18 | 250 | 4.8 | 4.8 | 0.00 | 0.00 | 0.00 | 81 | 991.3 |
| 20260506122726 | 18 | 222 | 3.2 | 3.2 | 0.00 | 0.00 | 0.00 | 80 | 991.3 |
| 20260506122224 | 18 | 237 | 3.2 | 3.2 | 0.00 | 0.00 | 0.00 | 80 | 991.0 |
| 20260506121722 | 18 | 259 | 3.2 | 3.2 | 0.00 | 0.00 | 0.00 | 80 | 991.0 |
| 20260506121218 | 18 | 259 | 1.6 | 3.2 | 0.00 | 0.00 | 0.00 | 80 | 991.1 |
| 20260506120716 | 18 | 242 | 8.0 | 11.3 | 0.00 | 0.00 | 0.00 | 81 | 990.9 |
| 20260506120213 | 18 | 226 | 8.0 | 11.3 | 0.00 | 0.00 | 0.00 | 80 | 991.1 |
| 20260506115711 | 18 | 252 | 1.6 | 3.2 | 0.00 | 0.00 | 0.00 | 80 | 990.7 |
| 20260506115209 | 18 | 244 | 3.2 | 4.8 | 0.00 | 0.00 | 0.00 | 81 | 990.7 |
| 20260506114706 | 18 | 231 | 3.2 | 3.2 | 0.00 | 0.00 | 0.00 | 80 | 990.8 |
| 20260506114204 | 18 | 183 | 4.8 | 8.0 | 0.00 | 0.00 | 0.00 | 80 | 990.7 |
| 20260506113703 | 18 | 254 | 6.4 | 9.7 | 0.00 | 0.00 | 0.00 | 81 | 990.7 |
| 20260506113200 | 18 | 270 | 4.8 | 8.0 | 0.00 | 0.00 | 0.00 | 80 | 990.7 |
| 20260506112655 | 18 | 271 | 4.8 | 4.8 | 0.00 | 0.00 | 0.00 | 81 | 990.7 |
| 20260506112153 | 18 | 262 | 8.0 | 11.3 | 0.00 | 0.00 | 0.00 | 80 | 990.7 |
| 20260506111651 | 18 | 234 | 4.8 | 4.8 | 0.00 | 0.00 | 0.00 | 80 | 990.7 |
| 20260506111149 | 18 | 259 | 4.8 | 4.8 | 0.00 | 0.00 | 0.00 | 80 | 990.7 |
| 20260506110646 | 18 | 237 | 8.0 | 11.3 | 0.00 | 0.00 | 0.00 | 80 | 990.8 |
| 20260506110143 | 18 | 105 | 6.4 | 9.7 | 0.00 | 0.00 | 0.00 | 80 | 990.6 |
| 20260506105639 | 18 | 291 | 6.4 | 9.7 | 0.00 | 0.00 | 0.00 | 80 | 990.4 |
| 20260506105136 | 18 | 226 | 9.7 | 11.3 | 0.00 | 0.00 | 0.00 | 79 | 990.3 |
| 20260506104634 | 18 | 243 | 6.4 | 9.7 | 0.00 | 0.00 | 0.00 | 80 | 990.7 |
| 20260506104132 | 18 | 65 | 4.8 | 4.8 | 0.00 | 0.00 | 0.00 | 80 | 990.6 |
| 20260506103629 | 18 | 213 | 3.2 | 4.8 | 0.00 | 0.00 | 0.00 | 80 | 990.6 |
| 20260506103126 | 18 | 240 | 4.8 | 4.8 | 0.00 | 0.00 | 0.00 | 79 | 990.6 |
| 20260506102624 | 18 | 275 | 6.4 | 9.7 | 0.00 | 0.00 | 0.00 | 79 | 990.4 |
| 20260506102121 | 18 | 228 | 6.4 | 8.0 | 0.00 | 0.00 | 0.00 | 79 | 990.3 |
| 20260506101617 | 18 | 181 | 4.8 | 4.8 | 0.00 | 0.00 | 0.00 | 79 | 990.5 |
| 20260506101114 | 18 | 230 | 6.4 | 9.7 | 0.00 | 0.00 | 0.00 | 79 | 990.3 |
| 20260506100613 | 18 | 245 | 6.4 | 9.7 | 0.00 | 0.00 | 0.00 | 78 | 990.3 |
| 20260506100110 | 18 | 269 | 4.8 | 4.8 | 0.00 | 0.00 | 0.00 | 78 | 990.5 |
| 20260506095609 | 18 | 207 | 0.0 | 1.6 | 0.00 | 0.00 | 0.00 | 78 | 990.4 |
| 20260506095105 | 18 | 238 | 12.9 | 16.1 | 0.00 | 0.00 | 0.00 | 78 | 990.4 |
| 20260506094603 | 18 | 239 | 3.2 | 4.8 | 0.00 | 0.00 | 0.00 | 78 | 990.6 |
| 20260506094100 | 18 | 275 | 4.8 | 4.8 | 0.00 | 0.00 | 0.00 | 78 | 990.6 |
| 20260506093559 | 18 | 197 | 1.6 | 3.2 | 0.00 | 0.00 | 0.00 | 78 | 990.2 |
| 20260506093055 | 18 | 264 | 9.7 | 14.5 | 0.00 | 0.00 | 0.00 | 78 | 990.5 |
| 20260506092554 | 18 | 238 | 4.8 | 8.0 | 0.00 | 0.00 | 0.00 | 78 | 990.4 |
| 20260506092050 | 18 | 236 | 8.0 | 11.3 | 0.00 | 0.00 | 0.00 | 78 | 990.4 |
| 20260506091548 | 18 | 207 | 8.0 | 12.9 | 0.00 | 0.00 | 0.00 | 78 | 990.4 |
| 20260506091045 | 18 | 187 | 3.2 | 3.2 | 0.00 | 0.00 | 0.00 | 79 | 990.6 |
| 20260506090543 | 18 | 252 | 4.8 | 4.8 | 0.00 | 0.00 | 0.00 | 78 | 990.4 |
| 20260506090039 | 18 | 236 | 6.4 | 8.0 | 0.00 | 0.00 | 0.00 | 78 | 990.3 |
| 20260506085536 | 18 | 227 | 4.8 | 8.0 | 0.00 | 0.00 | 0.00 | 78 | 990.6 |
| 20260506085032 | 18 | 216 | 4.8 | 4.8 | 0.00 | 0.00 | 0.00 | 78 | 990.5 |
| 20260506084530 | 19 | 249 | 4.8 | 4.8 | 0.00 | 0.00 | 0.00 | 77 | 990.5 |
| 20260506084025 | 19 | 212 | 3.2 | 4.8 | 0.00 | 0.00 | 0.00 | 77 | 990.5 |
| 20260506083523 | 19 | 162 | 4.8 | 8.0 | 0.00 | 0.00 | 0.00 | 77 | 990.4 |
| 20260506083020 | 19 | 208 | 4.8 | 8.0 | 0.00 | 0.00 | 0.00 | 77 | 990.4 |
| 20260506082517 | 19 | 157 | 3.2 | 4.8 | 0.00 | 0.00 | 0.00 | 76 | 990.7 |
| 20260506082013 | 19 | 253 | 4.8 | 4.8 | 0.00 | 0.00 | 0.00 | 76 | 990.6 |
| 20260506081511 | 19 | 340 | 8.0 | 11.3 | 0.00 | 0.00 | 0.00 | 76 | 990.4 |
| 20260506081009 | 19 | 254 | 9.7 | 14.5 | 0.00 | 0.00 | 0.00 | 76 | 990.5 |
| 20260506080506 | 19 | 248 | 8.0 | 12.9 | 0.00 | 0.00 | 0.00 | 75 | 990.6 |
| 20260506073449 | 19 | 235 | 3.2 | 4.8 | 0.00 | 0.00 | 0.00 | 75 | 990.6 |
| 20260506072946 | 19 | 209 | 4.8 | 8.0 | 0.00 | 0.00 | 0.00 | 74 | 990.6 |
| 20260506072443 | 19 | 221 | 4.8 | 8.0 | 0.00 | 0.00 | 0.00 | 74 | 990.6 |
| 20260506071941 | 19 | 180 | 4.8 | 4.8 | 0.00 | 0.00 | 0.00 | 74 | 990.6 |
| 20260506071439 | 19 | 229 | 1.6 | 3.2 | 0.00 | 0.00 | 0.00 | 74 | 990.7 |
| 20260506070935 | 19 | 275 | 8.0 | 11.3 | 0.00 | 0.00 | 0.00 | 73 | 990.8 |
| 20260506070432 | 19 | 256 | 4.8 | 4.8 | 0.00 | 0.00 | 0.00 | 73 | 990.9 |
| 20260506062410 | 20 | 242 | 1.6 | 3.2 | 0.00 | 0.00 | 0.00 | 69 | 991.4 |
| 20260506061906 | 20 | 211 | 6.4 | 9.7 | 0.00 | 0.00 | 0.00 | 69 | 991.4 |
| 20260506061403 | 20 | 253 | 4.8 | 8.0 | 0.00 | 0.00 | 0.00 | 68 | 991.2 |
| 20260506060901 | 20 | 195 | 4.8 | 8.0 | 0.00 | 0.00 | 0.00 | 68 | 991.2 |
| 20260506060358 | 20 | 171 | 6.4 | 8.0 | 0.00 | 0.00 | 0.00 | 67 | 991.3 |
| 20260506051330 | 20 | 197 | 8.0 | 9.7 | 0.00 | 0.00 | 0.00 | 65 | 991.6 |
| 20260506050828 | 20 | 213 | 6.4 | 9.7 | 0.00 | 0.00 | 0.00 | 65 | 991.7 |
| 20260506050325 | 20 | 250 | 3.2 | 4.8 | 0.00 | 0.00 | 0.00 | 65 | 991.6 |
| 20260506044815 | 20 | 253 | 1.6 | 3.2 | 0.00 | 0.00 | 0.00 | 65 | 991.7 |
| 20260506044314 | 20 | 199 | 4.8 | 4.8 | 0.00 | 0.00 | 0.00 | 64 | 991.6 |
| 20260506043810 | 20 | 255 | 6.4 | 11.3 | 0.00 | 0.00 | 0.00 | 65 | 992.0 |
| 20260506043308 | 20 | 229 | 8.0 | 9.7 | 0.00 | 0.00 | 0.00 | 64 | 991.8 |
| 20260506042806 | 20 | 248 | 6.4 | 8.0 | 0.00 | 0.00 | 0.00 | 64 | 991.8 |
| 20260506042305 | 20 | 240 | 4.8 | 8.0 | 0.00 | 0.00 | 0.00 | 64 | 991.9 |
| 20260506041803 | 20 | 203 | 3.2 | 3.2 | 0.00 | 0.00 | 0.00 | 64 | 992.0 |
| 20260506041259 | 20 | 236 | 4.8 | 8.0 | 0.00 | 0.00 | 0.00 | 63 | 991.9 |
| 20260506040757 | 20 | 248 | 4.8 | 4.8 | 0.00 | 0.00 | 0.00 | 63 | 991.7 |
| 20260506040254 | 20 | 241 | 3.2 | 3.2 | 0.00 | 0.00 | 0.00 | 63 | 991.6 |
| 20260506035750 | 20 | 214 | 1.6 | 1.6 | 0.00 | 0.00 | 0.00 | 63 | 991.7 |
| 20260506035247 | 20 | 193 | 1.6 | 3.2 | 0.00 | 0.00 | 0.00 | 64 | 991.8 |
| 20260506034744 | 20 | 215 | 4.8 | 8.0 | 0.00 | 0.00 | 0.00 | 63 | 991.7 |
| 20260506034242 | 21 | 146 | 1.6 | 1.6 | 0.00 | 0.00 | 0.00 | 63 | 991.5 |
| 20260506033738 | 21 | 194 | 1.6 | 3.2 | 0.00 | 0.00 | 0.00 | 62 | 991.7 |
| 20260506033236 | 20 | 239 | 1.6 | 1.6 | 0.00 | 0.00 | 0.00 | 63 | 991.8 |
| 20260506032732 | 21 | 235 | 3.2 | 8.0 | 0.00 | 0.00 | 0.00 | 62 | 991.7 |
| 20260506032229 | 21 | 256 | 6.4 | 8.0 | 0.00 | 0.00 | 0.00 | 62 | 991.9 |
| 20260506031726 | 21 | 198 | 3.2 | 3.2 | 0.00 | 0.00 | 0.00 | 62 | 991.7 |
| 20260506031223 | 21 | 224 | 6.4 | 11.3 | 0.00 | 0.00 | 0.00 | 61 | 991.6 |
| 20260506030722 | 21 | 225 | 4.8 | 8.0 | 0.00 | 0.00 | 0.00 | 61 | 991.7 |
| 20260506030219 | 21 | 189 | 9.7 | 12.9 | 0.00 | 0.00 | 0.00 | 60 | 991.7 |
| 20260506025715 | 21 | 212 | 1.6 | 3.2 | 0.00 | 0.00 | 0.00 | 60 | 991.8 |
| 20260506025212 | 21 | 193 | 4.8 | 4.8 | 0.00 | 0.00 | 0.00 | 60 | 991.6 |
| 20260506024709 | 21 | 177 | 1.6 | 1.6 | 0.00 | 0.00 | 0.00 | 59 | 991.7 |
| 20260506024205 | 21 | 174 | 1.6 | 1.6 | 0.00 | 0.00 | 0.00 | 60 | 991.7 |
| 20260506023702 | 21 | 163 | 4.8 | 4.8 | 0.00 | 0.00 | 0.00 | 58 | 991.8 |
| 20260506023159 | 21 | 227 | 4.8 | 9.7 | 0.00 | 0.00 | 0.00 | 59 | 991.7 |
| 20260506022656 | 21 | 244 | 3.2 | 3.2 | 0.00 | 0.00 | 0.00 | 58 | 991.8 |
| 20260506022153 | 21 | 203 | 4.8 | 8.0 | 0.00 | 0.00 | 0.00 | 57 | 991.8 |
| 20260506021651 | 21 | 248 | 0.0 | 0.0 | 0.00 | 0.00 | 0.00 | 58 | 991.7 |
| 20260506021148 | 21 | 206 | 1.6 | 1.6 | 0.00 | 0.00 | 0.00 | 58 | 991.8 |
| 20260506020645 | 22 | 113 | 1.6 | 1.6 | 0.00 | 0.00 | 0.00 | 57 | 992.0 |
| 20260506020143 | 22 | 200 | 1.6 | 3.2 | 0.00 | 0.00 | 0.00 | 56 | 991.6 |
| 20260506015640 | 22 | 257 | 1.6 | 3.2 | 0.00 | 0.00 | 0.00 | 57 | 991.8 |
| 20260506015137 | 22 | 194 | 3.2 | 4.8 | 0.00 | 0.00 | 0.00 | 56 | 991.5 |
| 20260506014635 | 22 | 240 | 3.2 | 4.8 | 0.00 | 0.00 | 0.00 | 56 | 991.5 |
| 20260506014130 | 22 | 234 | 6.4 | 9.7 | 0.00 | 0.00 | 0.00 | 55 | 991.4 |
| 20260506013629 | 22 | 214 | 6.4 | 8.0 | 0.00 | 0.00 | 0.00 | 54 | 991.5 |
| 20260506013125 | 22 | 267 | 6.4 | 8.0 | 0.00 | 0.00 | 0.00 | 53 | 991.4 |
| 20260506012621 | 22 | 161 | 3.2 | 4.8 | 0.00 | 0.00 | 0.00 | 54 | 991.5 |
| 20260506012118 | 22 | 230 | 1.6 | 1.6 | 0.00 | 0.00 | 0.00 | 53 | 991.4 |
| 20260506011616 | 22 | 233 | 1.6 | 3.2 | 0.00 | 0.00 | 0.00 | 53 | 991.2 |
| 20260506011112 | 22 | 209 | 3.2 | 4.8 | 0.00 | 0.00 | 0.00 | 53 | 991.2 |
| 20260506010606 | 23 | 270 | 4.8 | 8.0 | 0.00 | 0.00 | 0.00 | 52 | 991.2 |
| 20260506005559 | 23 | 230 | 4.8 | 4.8 | 0.00 | 0.00 | 0.00 | 52 | 991.2 |
| 20260506005055 | 23 | 201 | 3.2 | 3.2 | 0.00 | 0.00 | 0.00 | 51 | 991.1 |
| 20260506004552 | 23 | 227 | 3.2 | 3.2 | 0.00 | 0.00 | 0.00 | 51 | 990.9 |
| 20260506004049 | 23 | 158 | 1.6 | 3.2 | 0.00 | 0.00 | 0.00 | 51 | 990.8 |
| 20260506003545 | 23 | 224 | 3.2 | 3.2 | 0.00 | 0.00 | 0.00 | 51 | 990.8 |
| 20260506003042 | 23 | 229 | 4.8 | 4.8 | 0.00 | 0.00 | 0.00 | 50 | 990.8 |
| 20260506002537 | 23 | 236 | 4.8 | 4.8 | 0.00 | 0.00 | 0.00 | 48 | 990.7 |
| 20260506002034 | 23 | 231 | 3.2 | 4.8 | 0.00 | 0.00 | 0.00 | 48 | 990.7 |
| 20260506001530 | 23 | 204 | 4.8 | 4.8 | 0.00 | 0.00 | 0.00 | 48 | 990.9 |
| 20260506001027 | 24 | 261 | 6.4 | 8.0 | 0.00 | 0.00 | 0.00 | 49 | 990.7 |
| 20260506000525 | 24 | 245 | 4.8 | 4.8 | 0.00 | 0.00 | 0.00 | 48 | 990.6 |
| 20260506000022 | 24 | 229 | 4.8 | 4.8 | 0.00 | 0.00 | 0.00 | 48 | 990.7 |
| 20260505235520 | 24 | 240 | 4.8 | 4.8 | 0.00 | 0.00 | 0.00 | 48 | 990.8 |
| 20260505235016 | 24 | 244 | 4.8 | 4.8 | 0.00 | 0.00 | 0.00 | 48 | 990.4 |
| 20260505234514 | 24 | 250 | 6.4 | 9.7 | 0.00 | 0.00 | 0.00 | 48 | 990.5 |
| 20260505234010 | 25 | 232 | 3.2 | 3.2 | 0.00 | 0.00 | 0.00 | 47 | 990.6 |
| 20260505233508 | 25 | 147 | 3.2 | 3.2 | 0.00 | 0.00 | 0.00 | 47 | 990.4 |
| 20260505233005 | 25 | 248 | 3.2 | 3.2 | 0.00 | 0.00 | 0.00 | 47 | 990.3 |
| 20260505232503 | 25 | 262 | 4.8 | 8.0 | 0.00 | 0.00 | 0.00 | 46 | 990.5 |
| 20260505232000 | 25 | 202 | 6.4 | 9.7 | 0.00 | 0.00 | 0.00 | 45 | 990.4 |
| 20260505231457 | 25 | 212 | 0.0 | 1.6 | 0.00 | 0.00 | 0.00 | 47 | 990.3 |
| 20260505230955 | 25 | 235 | 3.2 | 4.8 | 0.00 | 0.00 | 0.00 | 46 | 990.1 |
| 20260505230453 | 25 | 253 | 1.6 | 1.6 | 0.00 | 0.00 | 0.00 | 46 | 990.3 |
| 20260505225949 | 25 | 242 | 4.8 | 4.8 | 0.00 | 0.00 | 0.00 | 46 | 990.4 |
| 20260505225446 | 25 | 242 | 9.7 | 12.9 | 0.00 | 0.00 | 0.00 | 45 | 990.4 |
| 20260505224942 | 25 | 219 | 3.2 | 4.8 | 0.00 | 0.00 | 0.00 | 46 | 990.4 |
| 20260505224439 | 25 | 249 | 4.8 | 8.0 | 0.00 | 0.00 | 0.00 | 45 | 990.3 |
| 20260505223936 | 25 | 232 | 6.4 | 8.0 | 0.00 | 0.00 | 0.00 | 45 | 990.2 |
| 20260505223433 | 25 | 242 | 6.4 | 9.7 | 0.00 | 0.00 | 0.00 | 45 | 990.2 |
| 20260505222930 | 25 | 189 | 6.4 | 9.7 | 0.00 | 0.00 | 0.00 | 44 | 990.4 |
| 20260505222426 | 26 | 245 | 16.1 | 20.9 | 0.00 | 0.00 | 0.00 | 44 | 990.4 |
| 20260505221922 | 26 | 273 | 9.7 | 12.9 | 0.00 | 0.00 | 0.00 | 45 | 990.4 |
| 20260505221419 | 26 | 278 | 11.3 | 16.1 | 0.00 | 0.00 | 0.00 | 44 | 990.2 |
| 20260505220916 | 26 | 200 | 8.0 | 11.3 | 0.00 | 0.00 | 0.00 | 44 | 990.3 |
| 20260505220413 | 26 | 273 | 16.1 | 17.7 | 0.00 | 0.00 | 0.00 | 43 | 990.1 |
| 20260505215911 | 25 | 226 | 9.7 | 14.5 | 0.00 | 0.00 | 0.00 | 44 | 990.3 |
| 20260505215409 | 26 | 265 | 6.4 | 11.3 | 0.00 | 0.00 | 0.00 | 45 | 990.2 |
| 20260505214907 | 26 | 270 | 9.7 | 12.9 | 0.00 | 0.00 | 0.00 | 45 | 990.1 |
| 20260505214404 | 26 | 241 | 11.3 | 16.1 | 0.00 | 0.00 | 0.00 | 44 | 990.1 |
| 20260505213901 | 26 | 191 | 1.6 | 3.2 | 0.00 | 0.00 | 0.00 | 45 | 990.1 |
| 20260505213359 | 26 | 268 | 6.4 | 9.7 | 0.00 | 0.00 | 0.00 | 45 | 990.1 |
| 20260505212855 | 26 | 281 | 8.0 | 9.7 | 0.00 | 0.00 | 0.00 | 43 | 990.2 |
| 20260505212352 | 27 | 177 | 4.8 | 8.0 | 0.00 | 0.00 | 0.00 | 43 | 990.1 |
| 20260505211848 | 27 | 206 | 17.7 | 20.9 | 0.00 | 0.00 | 0.00 | 41 | 990.0 |
| 20260505211346 | 27 | 243 | 8.0 | 11.3 | 0.00 | 0.00 | 0.00 | 43 | 990.2 |
| 20260505210842 | 27 | 210 | 3.2 | 4.8 | 0.00 | 0.00 | 0.00 | 43 | 990.1 |
| 20260505210339 | 26 | 225 | 4.8 | 8.0 | 0.00 | 0.00 | 0.00 | 43 | 990.1 |
| 20260505205835 | 27 | 236 | 9.7 | 11.3 | 0.00 | 0.00 | 0.00 | 42 | 990.1 |
| 20260505205334 | 26 | 234 | 6.4 | 11.3 | 0.00 | 0.00 | 0.00 | 44 | 990.0 |
| 20260505204830 | 26 | 217 | 11.3 | 17.7 | 0.00 | 0.00 | 0.00 | 42 | 990.4 |
| 20260505204328 | 27 | 251 | 11.3 | 16.1 | 0.00 | 0.00 | 0.00 | 41 | 990.2 |
| 20260505203826 | 27 | 238 | 4.8 | 8.0 | 0.00 | 0.00 | 0.00 | 42 | 990.1 |
| 20260505203322 | 26 | 248 | 8.0 | 9.7 | 0.00 | 0.00 | 0.00 | 42 | 990.0 |
| 20260505202818 | 27 | 246 | 14.5 | 22.5 | 0.00 | 0.00 | 0.00 | 42 | 990.0 |
| 20260505202314 | 27 | 229 | 12.9 | 14.5 | 0.00 | 0.00 | 0.00 | 42 | 990.2 |
| 20260505201811 | 27 | 266 | 4.8 | 4.8 | 0.00 | 0.00 | 0.00 | 44 | 990.3 |
| 20260505201309 | 27 | 198 | 12.9 | 22.5 | 0.00 | 0.00 | 0.00 | 42 | 990.1 |
| 20260505200807 | 26 | 201 | 6.4 | 8.0 | 0.00 | 0.00 | 0.00 | 41 | 990.3 |
| 20260505200304 | 26 | 232 | 11.3 | 12.9 | 0.00 | 0.00 | 0.00 | 43 | 990.5 |
| 20260505195759 | 27 | 219 | 3.2 | 4.8 | 0.00 | 0.00 | 0.00 | 42 | 990.4 |
| 20260505195257 | 27 | 231 | 8.0 | 9.7 | 0.00 | 0.00 | 0.00 | 42 | 990.3 |
| 20260505194753 | 27 | 246 | 9.7 | 12.9 | 0.00 | 0.00 | 0.00 | 42 | 990.4 |
| 20260505194250 | 27 | 262 | 9.7 | 12.9 | 0.00 | 0.00 | 0.00 | 41 | 990.3 |
| 20260505193746 | 27 | 247 | 11.3 | 14.5 | 0.00 | 0.00 | 0.00 | 42 | 990.3 |
| 20260505193244 | 27 | 209 | 14.5 | 17.7 | 0.00 | 0.00 | 0.00 | 42 | 990.5 |
| 20260505192742 | 27 | 220 | 6.4 | 11.3 | 0.00 | 0.00 | 0.00 | 42 | 990.6 |
| 20260505192239 | 27 | 237 | 9.7 | 11.3 | 0.00 | 0.00 | 0.00 | 41 | 990.8 |
| 20260505191737 | 27 | 245 | 16.1 | 24.1 | 0.00 | 0.00 | 0.00 | 41 | 990.7 |
| 20260505191236 | 27 | 253 | 14.5 | 16.1 | 0.00 | 0.00 | 0.00 | 40 | 990.6 |
| 20260505190731 | 27 | 257 | 11.3 | 12.9 | 0.00 | 0.00 | 0.00 | 41 | 990.8 |
| 20260505190231 | 27 | 226 | 12.9 | 16.1 | 0.00 | 0.00 | 0.00 | 42 | 990.8 |
| 20260505185728 | 27 | 182 | 4.8 | 4.8 | 0.00 | 0.00 | 0.00 | 40 | 990.6 |
| 20260505185225 | 27 | 241 | 6.4 | 9.7 | 0.00 | 0.00 | 0.00 | 43 | 990.8 |
| 20260505184720 | 27 | 217 | 9.7 | 12.9 | 0.00 | 0.00 | 0.00 | 40 | 991.0 |
| 20260505184218 | 27 | 250 | 6.4 | 8.0 | 0.00 | 0.00 | 0.00 | 41 | 990.9 |
| 20260505183715 | 27 | 219 | 8.0 | 11.3 | 0.00 | 0.00 | 0.00 | 39 | 990.9 |